Weather History for KOVS - January, 2013

Change the Weather History Date:

Sunday, January 27, 2013

  Actual Average (WUND) Record (WUND)
Temperature  
Mean Temperature 30 °F -  
Max Temperature 34 °F - - (-1)
Min Temperature 26 °F - - (-1)
Degree Days  
Heating Degree Days 35    
Moisture  
Dew Point 25 °F    
Average Humidity 80    
Maximum Humidity 100    
Minimum Humidity 56    
Precipitation  
Precipitation 0.19 in - - ()
Sea Level Pressure  
Sea Level Pressure 30.05 in    
Wind  
Wind Speed 2 mph (East)    
Max Wind Speed 10 mph    
Max Gust Speed 17 mph    
Visibility 4 miles    
Events Rain    
Averages and records for this station are not official NWS values.
T = Trace of Precipitation, MM = Missing Value Source: NWS Daily Summary

Daily Weather History Graph

Daily Weather History Graph

Search for Another Location

Airport or City:

Trip Planner

Search our weather history database for the weather conditions in past years. The results will help you decide how hot, cold, wet, or windy it might be!

Date:

Astronomy

Jan. 27, 2013 Rise Set
Actual Time 7:22 AM CST 5:08 PM CST
Civil Twilight 6:52 AM CST 5:39 PM CST
Nautical Twilight 6:17 AM CST 6:13 PM CST
Astronomical Twilight 5:44 AM CST 6:47 PM CST
Moon 6:06 PM CST (1/27) 7:13 AM CST (1/27)
Length of Visible Light 10h 47m
Length of Day
9h 45m
Full, 100% of the Moon is Illuminated
Jan 27
Full
Feb 3
Last Quarter
Feb 10
New
Feb 17
First Quarter
Feb 25
Full

Hourly Weather History & Observations

Time (CST) Temp. Windchill Dew Point Humidity Pressure Visibility Wind Dir Wind Speed Gust Speed Precip Events Conditions
12:53 AM 26.1 °F - 12.9 °F 58% 30.30 in 10.0 mi Calm Calm - N/A   Partly Cloudy
1:53 AM 26.1 °F - 14.0 °F 60% 30.31 in 10.0 mi Calm Calm - N/A   Partly Cloudy
2:53 AM 27.0 °F - 14.0 °F 58% 30.28 in 10.0 mi Calm Calm - N/A   Clear
3:53 AM 28.0 °F - 14.0 °F 56% 30.25 in 10.0 mi Calm Calm - N/A   Clear
4:53 AM 28.0 °F 24.2 °F 14.0 °F 56% 30.23 in 10.0 mi Variable 3.5 mph - N/A   Overcast
5:53 AM 28.0 °F 22.8 °F 15.1 °F 58% 30.23 in 10.0 mi Variable 4.6 mph - N/A   Unknown
6:53 AM 28.9 °F - 15.1 °F 56% 30.22 in 10.0 mi Calm Calm - N/A   Overcast
7:53 AM 28.9 °F - 16.0 °F 58% 30.23 in 10.0 mi Calm Calm - N/A   Scattered Clouds
8:53 AM 30.0 °F 26.5 °F 17.1 °F 59% 30.22 in 9.0 mi Variable 3.5 mph - N/A   Overcast
9:53 AM 30.9 °F - 19.0 °F 61% 30.20 in 10.0 mi Calm Calm - 0.00 in   Overcast
10:53 AM 30.0 °F 26.5 °F 21.9 °F 72% 30.17 in 6.0 mi Variable 3.5 mph - 0.01 in   Overcast
11:48 AM 30.2 °F 26.7 °F 24.8 °F 80% 30.09 in 3.0 mi Variable 3.5 mph - 0.03 in Rain Light Freezing Rain
11:53 AM 30.9 °F 25.2 °F 25.0 °F 79% 30.12 in 3.0 mi Variable 5.8 mph - 0.04 in Rain Light Freezing Rain
12:01 PM 30.2 °F 24.3 °F 24.8 °F 80% 30.08 in 2.5 mi Variable 5.8 mph - 0.01 in Rain Light Freezing Rain
12:10 PM 30.2 °F 25.4 °F 26.6 °F 86% 30.07 in 3.0 mi Variable 4.6 mph - 0.02 in Rain Light Freezing Rain
12:19 PM 30.2 °F 24.3 °F 26.6 °F 86% 30.07 in 2.5 mi ESE 5.8 mph - 0.02 in Rain Light Freezing Rain
12:28 PM 30.2 °F 22.6 °F 26.6 °F 86% 30.07 in 3.0 mi ESE 8.1 mph - 0.03 in Rain Light Freezing Rain
12:41 PM 30.2 °F 23.4 °F 26.6 °F 86% 30.05 in 2.5 mi Variable 6.9 mph - 0.04 in Rain Light Freezing Rain
12:53 PM 30.9 °F 24.3 °F 26.1 °F 82% 30.08 in 2.0 mi ESE 6.9 mph 17.3 mph 0.08 in Rain Light Freezing Rain
1:03 PM 30.2 °F 25.4 °F 26.6 °F 86% 30.04 in 3.0 mi Variable 4.6 mph - 0.01 in Rain Light Freezing Rain
1:23 PM 30.2 °F - 26.6 °F 86% 30.04 in 2.5 mi Calm Calm - 0.02 in Rain Light Freezing Rain
1:42 PM 30.2 °F 22.6 °F 26.6 °F 86% 30.01 in 1.5 mi East 8.1 mph - 0.03 in Rain Light Freezing Rain
1:53 PM 30.9 °F 22.2 °F 28.0 °F 89% 30.02 in 1.2 mi East 10.4 mph 17.3 mph 0.03 in Rain Light Freezing Rain
2:31 PM 32.0 °F 25.6 °F 28.4 °F 87% 29.97 in 1.5 mi Variable 6.9 mph - 0.01 in Rain Light Freezing Rain
2:53 PM 32.0 °F 26.4 °F 28.9 °F 88% 29.99 in 1.5 mi Variable 5.8 mph - 0.01 in Rain Light Freezing Rain
3:53 PM 32.0 °F - 28.9 °F 88% 29.97 in 1.5 mi Calm Calm - 0.00 in Rain Light Freezing Rain
4:53 PM 32.0 °F 27.5 °F 28.9 °F 88% 29.95 in 1.5 mi Variable 4.6 mph - 0.00 in Rain Light Freezing Rain
5:00 PM 32.0 °F - 28.4 °F 87% 29.92 in 2.0 mi Calm Calm - 0.00 in   Overcast
5:12 PM 32.0 °F 28.7 °F 30.2 °F 93% 29.92 in 2.0 mi Variable 3.5 mph - 0.00 in   Overcast
5:53 PM 33.1 °F - 30.9 °F 92% 29.93 in 2.5 mi Calm Calm - 0.00 in   Overcast
6:07 PM 33.8 °F - 30.2 °F 87% 29.90 in 3.0 mi Calm Calm - N/A   Overcast
6:30 PM 33.8 °F - 30.2 °F 87% 29.89 in 2.5 mi Calm Calm - N/A   Overcast
6:53 PM 34.0 °F - 32.0 °F 92% 29.91 in 2.0 mi Calm Calm - N/A   Overcast
7:53 PM 33.1 °F 30.0 °F 32.0 °F 96% 29.90 in 2.0 mi NE 3.5 mph - 0.01 in   Overcast
8:53 PM 34.0 °F 31.0 °F 32.0 °F 92% 29.88 in 1.8 mi NE 3.5 mph - N/A   Overcast
9:41 PM 33.8 °F - 33.8 °F 100% 29.84 in 2.0 mi Calm Calm - N/A   Overcast
9:53 PM 34.0 °F - 33.1 °F 96% 29.86 in 2.5 mi Calm Calm - 0.00 in Rain Light Rain
10:53 PM 33.1 °F 30.0 °F 32.0 °F 96% 29.85 in 1.5 mi NE 3.5 mph - 0.01 in   Overcast
11:53 PM 33.1 °F 28.7 °F 32.0 °F 96% 29.82 in 1.8 mi ENE 4.6 mph - 0.00 in   Overcast